Retour au catalogue

DELTA 1 DEB

ActifPO
NORAD 21458·DEBRIS·🇺🇸 United States

Lancé Jun 12, 1975 depuis Vandenberg Space Force Base

Loading…

Prochains Passages (prochaines 24 heures)

TLE

FraisSource: Space-Track

Époque: Sep 14, 2026, 10:27 UTC

1 21458U 75052ES  26257.43556743  .00000071  00000-0  40714-3 0  9995
2 21458  99.7705  82.0562 0562372 151.4918 244.3016 12.44574463604679

Suivez DELTA 1 DEB en temps réel avec AllMySat

Download on the App Store